STARLINK-1271, 45217

Orbit data source: Space-Track

STARLINK-1271, 45217 is a payload satellite owned by SpaceX/Seattle (US) in LEO that was launched on Mon, 17 Feb 2020 UTC via an FALCON 9 launch vehicle from the Air Force Eastern Test Range (AFETR). Payload-class satellites include a variety of spacecraft equipped with specific instruments for various scientific and technological missions. These include communications satellites like Starlink; space stations such as the ISS; scientific satellites like the Hubble; Earth observation satellites from companies like Planet Labs, Umbra, and HawkEye 360; GPS; miniature CubeSats for education and research; and military/defense satellites.

Loading next visibility...
Identifier
45217, 2020-012AR
Orbit
LEO
Country
Flag of USUS
Related business
Manufacturer
SpaceX/Seattle
Mission
Partially operational Commercial Communications
Bus & Motor
STARLINK, Unknown motor
Mass
260 kg wet, ~248 kg dry
Launch date (UTC)
2020-02-17 (6 years ago)
Launch vehicle
FALCON 9
Launch site
Air Force Eastern Test Range (AFETR)
Object type
Payload
Rocket body
Debris
Shape & HBR
Box + 1 Pan, 10.1 m
Radar Cross Section
13.562 m², Large (>1 m²)

Expand to show TLE details & history
Last TLE update: 18 hours ago

TLE from 18 hours ago
0 STARLINK-1271
1 45217U 20012AR  26169.56264800  .00044679  00000-0  12546-2 0  9999
2 45217  53.1566 274.0038 0002957 327.0472  33.0347 15.36126051350625
Epoch: 2026-06-18T13:30Z
TLE epoch observation values (Epoch: 2026-06-18T13:30:12.787Z)
Latitude
0.00003°
Longitude
164.64635°
Altitude
456.785 km
Speed
7.641 km/s
True Right ascension
18h 16m 00s
True Declination
0° 00' 00"
Sunlit
Object was in full shadow at epoch
Visualization orbit readout
Latitude
Unknown
Longitude
Unknown
Altitude
Unknown
Speed
Unknown
Apparent Right ascension
Unknown
Apparent Declination
Unknown
Sunlit
N/A
Visualization observer readout
Local Sidereal Time
17:58:04
Azimuth
Unknown
Elevation
Unknown
Doppler factor
Unknown
Orbital elements
Apogee altitude
459.857 km
Perigee altitude
455.814 km
Semi-major axis
6,835.972 km
Eccentricity
0.0003
Inclination
53.1566°
RAAN
274.0038°
Arg. of periapsis
327.0472°
True anomaly
33.05318°
Mean anomaly
33.0347°
Eccentric anomaly
33.04394°
Mean motion
3.8401 °/min
Orbital period
93.75 mins
BSTAR
0.0012546
Loading maneuver chart data...
Computing Atmospheric mass density...

Documentation

Showing up to 5 results
|